Regional Weather Roundup
Issued by NWS

Home | Current Version | Previous Version | Graphics & Text | Print | Product List | Glossary On
Versions: 1 2 3 4 5 6 7 8 9 10 11 12 13 14 15 16 17 18 19 20 21 22 23 24
000
ASUS45 KCYS 231210
RWRWY

WYOMING REGIONAL WEATHER ROUNDUP
NATIONAL WEATHER SERVICE CHEYENNE WY
600 AM MDT THU OCT 23 2014

NOTE:  "FAIR" INDICATES FEW OR NO CLOUDS BELOW 12,000 FEET
WITH NO SIGNIFICANT WEATHER AND/OR OBSTRUCTIONS TO VISIBILITY.

WYZ001-231300-
YELLOWSTONE NATIONAL PARK

CITY           SKY/WX    TMP DP  RH WIND       PRES   REMARKS
LK YELLOWSTONE   N/A     30  27  88 CALM      30.21S
6HR MIN TEMP:  25; 6HR MAX TEMP:  30;

W YELLOWSTONE  NOT AVBL

$$
WYZ002>013-054>058-071-098>099-231300-
NORTHERN WYOMING

CITY           SKY/WX    TMP DP  RH WIND       PRES   REMARKS
JACKSON        CLOUDY    32  28  86 N7        30.19F WCI  26
CODY           CLOUDY    52  21  30 SW18      30.00F
GREYBULL       CLOUDY    32  24  72 SE3       30.03F
6HR MIN TEMP:  31; 6HR MAX TEMP:  37;

WORLAND        FLURRIES  32  21  64 SE5       30.02F WCI  27
6HR MIN TEMP:  28; 6HR MAX TEMP:  35; 6HR PCP: TRACE;

SHERIDAN       CLOUDY    32  24  72 CALM      29.93F
6HR MIN TEMP:  30; 6HR MAX TEMP:  38;

BUFFALO        MOCLDY    44  11  26 SW7       29.97F
6HR MIN TEMP:  37; 6HR MAX TEMP:  50;

GILLETTE       PTCLDY    47  18  31 SW16G23   29.97F
6HR MIN TEMP:  38; 6HR MAX TEMP:  47;

HULETT         FAIR      37  23  56 SW7       29.99  WCI  32
NEWCASTLE      FAIR      30  25  80 CALM      30.06

$$
WYZ014>020-022>026-101>103-231300-
CENTRAL WYOMING

CITY           SKY/WX    TMP DP  RH WIND       PRES   REMARKS
BIG PINEY      FLURRIES  26  22  84 CALM      30.23S
6HR MIN TEMP:  24; 6HR MAX TEMP:  30; 6HR PCP: TRACE;

PINEDALE       CLOUDY    27  23  86 W5        30.24S WCI  21
DUBOIS         FAIR      39  16  38 NW17      30.13S WCI  30
LANDER         MOCLDY    35  23  61 NW13      30.09R WCI  26
6HR MIN TEMP:  35; 6HR MAX TEMP:  43;

RIVERTON       MOCLDY    40  18  41 SW8       30.09S WCI  34
6HR MIN TEMP:  37; 6HR MAX TEMP:  43;

CASPER         MOCLDY    45  19  35 SW14      30.09S
6HR MIN TEMP:  33; 6HR MAX TEMP:  48;

DOUGLAS        MOCLDY    28  17  63 CALM      30.08S
6HR MIN TEMP:  24; 6HR MAX TEMP:  37;


$$
WYZ021-027>030-104>119-231300-
SOUTHERN WYOMING

CITY           SKY/WX    TMP DP  RH WIND       PRES   REMARKS
EVANSTON       PTCLDY    37  22  54 S9        30.22F WCI  30
6HR MIN TEMP:  37; 6HR MAX TEMP:  41;

FORT BRIDGER   FAIR      40  21  46 W6        30.25S
ROCK SPRINGS   PTCLDY    39  20  46 CALM      30.22F
6HR MIN TEMP:  31; 6HR MAX TEMP:  41;

DIXON          FAIR      31  29  92 CALM      30.29S
RAWLINS        PTCLDY    40  29  64 W12       30.22R WCI  33
6HR MIN TEMP:  36; 6HR MAX TEMP:  45;

SARATOGA       FAIR      32  28  86 CALM      30.24S
LARAMIE        PTCLDY    41  27  57 NE5       30.21R
6HR MIN TEMP:  32; 6HR MAX TEMP:  44;

CHEYENNE       PTCLDY    38  30  73 W10       30.15S WCI  31
6HR MIN TEMP:  35; 6HR MAX TEMP:  44;

TORRINGTON     PTCLDY    30  23  75 CALM      30.07S
6HR MIN TEMP:  30; 6HR MAX TEMP:  47;

PINE BLUFFS    FAIR      32  32 100 W3        30.14S

$$



USA.gov is the U.S. government's official web portal to all federal, state and local government web resources and services.